• In Hungary
  • List of Countries
  • For 7 days
  • Water Temperature
  • Satellite Maps
  • Weather Map
  • News
  • Weather Widgets
  • user-avatar
    Login

    Hourly Weather Patrowo

    Today, 21 February, Wednesday

    Time Temperature Precipitation Wind Pressure Humidity
    00:00 -4°C° 0 mm 3 mps 759 mmHg 83%
    01:00 -4°C° 0 mm 3 mps 759 mmHg 84%
    02:00 -4°C° 0 mm 3 mps 759 mmHg 84%
    03:00 -4°C° 0 mm 3 mps 759 mmHg 84%
    04:00 -4°C° 0 mm 3 mps 759 mmHg 84%
    05:00 -4°C° 0 mm 3 mps 759 mmHg 84%
    06:00 -4°C° 0 mm 3 mps 759 mmHg 85%
    07:00 -4°C° 0 mm 3 mps 759 mmHg 85%
    08:00 -3°C° 0 mm 4 mps 759 mmHg 80%
    09:00 -3°C° 0 mm 4 mps 759 mmHg 75%
    10:00 -2°C° 0 mm 4 mps 760 mmHg 70%
    11:00 -2°C° 0 mm 4 mps 760 mmHg 66%
    12:00 -1°C° 0 mm 4 mps 760 mmHg 63%
    13:00 -1°C° 0 mm 4 mps 759 mmHg 59%
    14:00 -1°C° 0 mm 4 mps 759 mmHg 59%
    15:00 -2°C° 0 mm 4 mps 759 mmHg 58%
    16:00 -2°C° 0 mm 4 mps 759 mmHg 58%
    17:00 -3°C° 0 mm 4 mps 760 mmHg 59%
    18:00 -3°C° 0 mm 4 mps 760 mmHg 61%
    19:00 -4°C° 0 mm 3 mps 760 mmHg 62%
    20:00 -4°C° 0 mm 3 mps 760 mmHg 62%
    21:00 -4°C° 0 mm 3 mps 760 mmHg 62%
    22:00 -5°C° 0 mm 3 mps 761 mmHg 63%
    23:00 -5°C° 0 mm 3 mps 761 mmHg 62%

    Tomorrow, 22 February, Thursday

    Time Temperature Precipitation Wind Pressure Humidity
    00:00 -5°C° 0 mm 3 mps 761 mmHg 62%
    01:00 -5°C° 0 mm 3 mps 761 mmHg 61%
    02:00 -5°C° 0 mm 3 mps 761 mmHg 61%
    03:00 -5°C° 0 mm 3 mps 761 mmHg 61%
    04:00 -5°C° 0 mm 3 mps 760 mmHg 61%
    05:00 -6°C° 0 mm 3 mps 760 mmHg 61%
    06:00 -6°C° 0 mm 3 mps 761 mmHg 62%
    07:00 -6°C° 0 mm 3 mps 761 mmHg 62%
    08:00 -6°C° 0 mm 3 mps 761 mmHg 59%
    09:00 -5°C° 0 mm 3 mps 761 mmHg 55%
    10:00 -5°C° 0 mm 4 mps 761 mmHg 52%
    11:00 -4°C° 0 mm 4 mps 761 mmHg 49%
    12:00 -4°C° 0 mm 4 mps 761 mmHg 47%
    13:00 -3°C° 0 mm 4 mps 761 mmHg 45%
    14:00 -2°C° 0 mm 3 mps 761 mmHg 46%
    15:00 -4°C° 0 mm 3 mps 761 mmHg 48%
    16:00 -4°C° 0 mm 3 mps 760 mmHg 50%
    17:00 -4°C° 0 mm 3 mps 761 mmHg 53%
    18:00 -5°C° 0 mm 3 mps 761 mmHg 57%
    19:00 -5°C° 0 mm 3 mps 761 mmHg 60%
    20:00 -5°C° 0 mm 3 mps 761 mmHg 61%
    21:00 -5°C° 0 mm 3 mps 761 mmHg 61%
    22:00 -5°C° 0 mm 3 mps 761 mmHg 62%
    23:00 -6°C° 0 mm 3 mps 761 mmHg 63%

    Day after tomorrow, 23 February, Friday

    Time Temperature Precipitation Wind Pressure Humidity
    00:00 -6°C° 0 mm 3 mps 761 mmHg 64%
    01:00 -6°C° 0 mm 3 mps 761 mmHg 65%
    02:00 -6°C° 0 mm 3 mps 761 mmHg 67%
    03:00 -7°C° 0 mm 3 mps 761 mmHg 69%
    04:00 -7°C° 0 mm 3 mps 761 mmHg 71%
    05:00 -7°C° 0 mm 3 mps 761 mmHg 72%
    06:00 -7°C° 0 mm 3 mps 761 mmHg 73%
    07:00 -8°C° 0 mm 3 mps 762 mmHg 75%
    08:00 -7°C° 0 mm 3 mps 762 mmHg 70%
    09:00 -7°C° 0 mm 3 mps 762 mmHg 64%
    10:00 -6°C° 0 mm 3 mps 762 mmHg 59%
    11:00 -5°C° 0 mm 3 mps 762 mmHg 53%
    12:00 -5°C° 0 mm 3 mps 762 mmHg 47%
    13:00 -4°C° 0 mm 3 mps 762 mmHg 41%
    14:00 -4°C° 0 mm 3 mps 762 mmHg 40%
    15:00 -4°C° 0 mm 3 mps 762 mmHg 39%
    16:00 -4°C° 0 mm 3 mps 762 mmHg 38%
    17:00 -4°C° 0 mm 3 mps 762 mmHg 40%
    18:00 -5°C° 0 mm 3 mps 762 mmHg 42%
    19:00 -4°C° 0 mm 2 mps 763 mmHg 43%
    20:00 -4°C° 0 mm 2 mps 763 mmHg 45%
    21:00 -5°C° 0 mm 2 mps 763 mmHg 46%
    22:00 -5°C° 0 mm 2 mps 763 mmHg 47%
    23:00 -5°C° 0 mm 2 mps 763 mmHg 48%

    24 February, Saturday

    Time Temperature Precipitation Wind Pressure Humidity
    00:00 -5°C° 0 mm 2 mps 763 mmHg 49%
    01:00 -6°C° 0 mm 2 mps 763 mmHg 50%
    02:00 -6°C° 0 mm 2 mps 763 mmHg 51%
    03:00 -4°C° 0 mm 1 mps 763 mmHg 52%
    04:00 -4°C° 0 mm 1 mps 763 mmHg 52%
    05:00 -7°C° 0 mm 2 mps 764 mmHg 53%
    06:00 -7°C° 0 mm 2 mps 764 mmHg 53%
    07:00 -7°C° 0 mm 2 mps 764 mmHg 54%
    08:00 -6°C° 0 mm 2 mps 764 mmHg 52%
    09:00 -6°C° 0 mm 3 mps 764 mmHg 50%
    10:00 -6°C° 0 mm 3 mps 765 mmHg 48%
    11:00 -5°C° 0 mm 3 mps 764 mmHg 45%
    12:00 -5°C° 0 mm 4 mps 764 mmHg 42%
    13:00 -4°C° 0 mm 4 mps 764 mmHg 38%
    14:00 -5°C° 0 mm 4 mps 764 mmHg 40%
    15:00 -6°C° 0 mm 5 mps 764 mmHg 42%
    16:00 -6°C° 0 mm 5 mps 764 mmHg 43%
    17:00 -7°C° 0 mm 5 mps 764 mmHg 44%
    18:00 -9°C° 0 mm 6 mps 765 mmHg 44%
    19:00 -9°C° 0 mm 6 mps 765 mmHg 45%
    20:00 -10°C° 0 mm 6 mps 765 mmHg 47%
    21:00 -10°C° 0 mm 6 mps 766 mmHg 49%
    22:00 -11°C° 0 mm 5 mps 766 mmHg 51%
    23:00 -12°C° 0 mm 5 mps 766 mmHg 52%

    25 February, Sunday

    Time Temperature Precipitation Wind Pressure Humidity
    00:00 -12°C° 0 mm 5 mps 766 mmHg 54%
    01:00 -12°C° 0 mm 5 mps 766 mmHg 55%
    02:00 -13°C° 0 mm 5 mps 766 mmHg 56%
    03:00 -13°C° 0 mm 5 mps 766 mmHg 57%
    04:00 -12°C° 0 mm 4 mps 766 mmHg 58%
    05:00 -12°C° 0 mm 4 mps 766 mmHg 59%
    06:00 -12°C° 0 mm 4 mps 767 mmHg 61%
    07:00 -14°C° 0 mm 4 mps 767 mmHg 62%
    08:00 -12°C° 0 mm 4 mps 767 mmHg 60%
    09:00 -12°C° 0 mm 4 mps 767 mmHg 58%
    10:00 -11°C° 0 mm 4 mps 767 mmHg 56%
    11:00 -10°C° 0 mm 4 mps 767 mmHg 52%
    12:00 -9°C° 0 mm 4 mps 767 mmHg 48%
    13:00 -9°C° 0 mm 4 mps 766 mmHg 45%
    14:00 -8°C° 0 mm 4 mps 766 mmHg 45%
    15:00 -8°C° 0 mm 4 mps 766 mmHg 45%
    16:00 -8°C° 0 mm 4 mps 766 mmHg 45%
    17:00 -9°C° 0 mm 4 mps 766 mmHg 47%
    18:00 -9°C° 0 mm 4 mps 766 mmHg 49%
    19:00 -9°C° 0 mm 4 mps 766 mmHg 50%
    20:00 -10°C° 0 mm 4 mps 766 mmHg 52%
    21:00 -9°C° 0 mm 3 mps 766 mmHg 54%
    22:00 -9°C° 0 mm 3 mps 766 mmHg 56%
    23:00 -10°C° 0 mm 3 mps 765 mmHg 57%

    26 February, Monday

    Time Temperature Precipitation Wind Pressure Humidity
    00:00 -10°C° 0 mm 3 mps 765 mmHg 59%
    01:00 -10°C° 0 mm 3 mps 765 mmHg 60%
    02:00 -12°C° 0 mm 3 mps 765 mmHg 62%
    03:00 -12°C° 0 mm 3 mps 765 mmHg 63%
    04:00 -12°C° 0 mm 3 mps 764 mmHg 64%
    05:00 -13°C° 0 mm 3 mps 764 mmHg 65%
    06:00 -13°C° 0 mm 3 mps 764 mmHg 66%
    07:00 -13°C° 0 mm 3 mps 764 mmHg 66%
    08:00 -13°C° 0 mm 3 mps 764 mmHg 61%
    09:00 -12°C° 0 mm 3 mps 764 mmHg 56%
    10:00 -12°C° 0 mm 3 mps 764 mmHg 51%
    11:00 -10°C° 0 mm 3 mps 763 mmHg 46%
    12:00 -9°C° 0 mm 3 mps 763 mmHg 41%
    13:00 -9°C° 0 mm 3 mps 763 mmHg 36%
    14:00 -8°C° 0 mm 3 mps 762 mmHg 36%
    15:00 -8°C° 0 mm 3 mps 762 mmHg 36%
    16:00 -8°C° 0 mm 3 mps 761 mmHg 36%
    17:00 -9°C° 0 mm 3 mps 761 mmHg 38%
    18:00 -9°C° 0 mm 3 mps 761 mmHg 40%
    19:00 -8°C° 0 mm 2 mps 761 mmHg 42%
    20:00 -8°C° 0 mm 2 mps 761 mmHg 44%
    21:00 -9°C° 0 mm 2 mps 760 mmHg 45%
    22:00 -9°C° 0 mm 2 mps 760 mmHg 47%
    23:00 -9°C° 0 mm 2 mps 760 mmHg 48%
    Show more